Погода в Кухотской Воле

Украина / Ровненская область     51°40′20″N   25°41′13″E
темп.,
°C
ветер,
м/с
пор.,
м/с
влажн.,
%
обл.,
%
осадки,
мм/ч
давл.,
гПа
погр.,
м
20 мая, пт
пт2000:00+12зюз337398 0.0 102224
03:00+11юз3474100 0.0 102159
06:00+11юз3573100 0.0 102078
09:00+17зюз4765100 0.0 1019310
12:00+21зюз6850100 0.0 10171137
15:00+20зюз4860100 0.0 1015641
18:00+21з510659 0.0 1014992
21:00+18зюз4108625 0.1 1013245
21 мая, сб
сб2100:00+15з479471 0.1 1012138
03:00+13з3596100 0.1 101183
06:00+13юз3595100 0.0 1009102
09:00+15юз51295100 10.9 1007516
12:00+19з9168427 1.6 10051394
15:00+17зсз11167081 2.1 10081611
18:00+16з1017675 0.2 10081663
21:00+13зсз917665 0.2 10081433
22 мая, вс
вс2200:00+11з8157792 0.3 10081041
03:00+10зсз8158387 0.5 10071199
06:00+9зсз91580100 0.1 1007924
09:00+9зсз81380100 0.1 10071036
12:00+10зсз81180100 0.1 10081131
15:00+10сз61084100 0.3 1009840
18:00+10сз4789100 0.3 1010619
21:00+9сз3596100 1.0 1010300
23 мая, пн
пн2300:00+9ссз2498100 0.6 1011191
03:00+8с119599 0.6 101219
06:00+8с129288 0.0 101239
09:00+11с228023 0.1 1013360
12:00+15св23516 0.4 10131651
15:00+15ссв3459100 0.4 1013541
18:00+16св234932 0.0 10121358
21:00+12св226458 0.0 101328
24 мая, вт
вт2400:00+8вюв22703 0.0 101510
03:00+7вюв22710 0.0 101510
06:00+6юв227645 0.0 101617
09:00+13вюв356086 0.0 1016399
12:00+17юв454298 0.0 10151706
15:00+19ююв4541100 0.0 10151757
18:00+18ююв4654100 0.0 10151136
21:00+13юв356632 0.0 101558